,,,PA_Meas_PMT16A,,PR_Meas_QMR101_102,,RH_Meas_QMH101,,SR_Meas_QMS101,,TA_Meas_QMH101,,GenWind,,GenWind,
date,time,status,PA,status,PR,status,RH,status,SR,status,TA,status,DirAvg,status,SpdAvg,
2010-05-16, 00:00:04,VALID,1002.18,VALID,0,VALID,84.4593,VALID,0,VALID,27.6962,VALID,18,VALID,1.87383,
2010-05-16, 00:01:04,VALID,1002.14,VALID,0,VALID,84.4212,VALID,0,VALID,27.7157,VALID,12,VALID,1.45039,
2010-05-16, 00:02:04,VALID,1002.16,VALID,0,VALID,84.3678,VALID,0,VALID,27.7157,VALID,42,VALID,0.612109,
2010-05-16, 00:03:04,VALID,1002.14,VALID,0,VALID,84.3983,VALID,0,VALID,27.7157,VALID,30,VALID,2.03086,
2010-05-16, 00:04:04,VALID,1002.14,VALID,0,VALID,84.3373,VALID,0,VALID,27.7351,VALID,35,VALID,0.442578,
2010-05-16, 00:05:04,VALID,1002.12,VALID,0,VALID,84.4517,VALID,0,VALID,27.7157,VALID,20,VALID,0.866406,
2010-05-16, 00:06:04,VALID,1002.11,VALID,0,VALID,84.5585,VALID,0,VALID,27.6983,VALID,46,VALID,0.617578,
2010-05-16, 00:07:04,VALID,1002.09,VALID,0,VALID,84.7492,VALID,0,VALID,27.6593,VALID,10,VALID,0.833203,
2010-05-16, 00:08:04,VALID,1002.04,VALID,0,VALID,84.8408,VALID,0,VALID,27.5987,VALID,38,VALID,0.992188,
2010-05-16, 00:09:04,VALID,1002.01,VALID,0,VALID,85.0086,VALID,0,VALID,27.6008,VALID,19,VALID,1.05898,
2010-05-16, 00:10:04,VALID,1002.01,VALID,0,VALID,85.0391,VALID,0,VALID,27.5792,VALID,78,VALID,0.923047,
2010-05-16, 00:11:04,VALID,1001.97,VALID,0,VALID,85.1307,VALID,0,VALID,27.5598,VALID,354,VALID,0.887891,
2010-05-16, 00:12:04,VALID,1001.95,VALID,0,VALID,85.3061,VALID,0,VALID,27.5208,VALID,38,VALID,0.76875,
2010-05-16, 00:13:04,VALID,1001.96,VALID,0,VALID,85.4358,VALID,0,VALID,27.5013,VALID,17,VALID,1.30156,
2010-05-16, 00:14:04,VALID,1001.89,VALID,0,VALID,85.5655,VALID,0,VALID,27.5034,VALID,13,VALID,1.20156,
2010-05-16, 00:15:04,VALID,1001.88,VALID,0,VALID,85.6571,VALID,0,VALID,27.4623,VALID,20,VALID,1.17266,
2010-05-16, 00:16:04,VALID,1001.86,VALID,0,VALID,85.6494,VALID,0,VALID,27.4623,VALID,348,VALID,1.09414,
2010-05-16, 00:17:04,VALID,1001.85,VALID,0,VALID,85.6723,VALID,0,VALID,27.4623,VALID,34,VALID,1.17344,
2010-05-16, 00:18:04,VALID,1001.84,VALID,0,VALID,85.6723,VALID,0,VALID,27.4818,VALID,21,VALID,0.527734,
2010-05-16, 00:19:04,VALID,1001.81,VALID,0,VALID,85.68,VALID,0,VALID,27.4623,VALID,53,VALID,1.10703,
2010-05-16, 00:20:04,VALID,1001.77,VALID,0,VALID,85.8325,VALID,0,VALID,27.4428,VALID,47,VALID,0.703516,
2010-05-16, 00:21:04,VALID,1001.75,VALID,0,VALID,85.9088,VALID,0,VALID,27.4428,VALID,57,VALID,1.49531,
2010-05-16, 00:22:04,VALID,1001.71,VALID,0,VALID,85.8554,VALID,0,VALID,27.4449,VALID,15,VALID,1.65898,
2010-05-16, 00:23:04,VALID,1001.74,VALID,0,VALID,85.8478,VALID,0,VALID,27.4428,VALID,37,VALID,1.00781,
2010-05-16, 00:24:04,VALID,1001.74,VALID,0,VALID,85.8402,VALID,0,VALID,27.4039,VALID,79,VALID,0.451172,
2010-05-16, 00:25:04,VALID,1001.71,VALID,0,VALID,85.8249,VALID,0,VALID,27.4233,VALID,8,VALID,2.07539,
2010-05-16, 00:26:04,VALID,1001.71,VALID,0,VALID,85.7486,VALID,0,VALID,27.4428,VALID,31,VALID,0.962109,
2010-05-16, 00:27:04,VALID,1001.67,VALID,0,VALID,85.6723,VALID,0,VALID,27.4428,VALID,20,VALID,0.632813,
2010-05-16, 00:28:04,VALID,1001.66,VALID,0,VALID,85.68,VALID,0,VALID,27.4213,VALID,19,VALID,0.333594,
2010-05-16, 00:29:04,VALID,1001.62,VALID,0,VALID,85.6647,VALID,0,VALID,27.4233,VALID,32,VALID,1.07227,
2010-05-16, 00:30:04,VALID,1001.61,VALID,0,VALID,85.6418,VALID,0,VALID,27.4233,VALID,41,VALID,0.238672,
2010-05-16, 00:31:04,VALID,1001.6,VALID,0,VALID,85.535,VALID,0,VALID,27.4233,VALID,1,VALID,2.7332,
2010-05-16, 00:32:04,VALID,1001.59,VALID,0,VALID,85.2833,VALID,0,VALID,27.4623,VALID,15,VALID,2.95586,
2010-05-16, 00:33:04,VALID,1001.58,VALID,0,VALID,84.8103,VALID,0,VALID,27.5403,VALID,9,VALID,1.8375,
2010-05-16, 00:34:04,VALID,1001.55,VALID,0,VALID,84.5204,VALID,0,VALID,27.5987,VALID,29,VALID,1.59258,
2010-05-16, 00:35:04,VALID,1001.55,VALID,0,VALID,84.3068,VALID,0,VALID,27.6398,VALID,23,VALID,1.41133,
2010-05-16, 00:36:04,VALID,1001.52,VALID,0,VALID,84.1313,VALID,0,VALID,27.6377,VALID,1,VALID,1.5457,
2010-05-16, 00:37:04,VALID,1001.48,VALID,0,VALID,83.9177,VALID,0,VALID,27.6767,VALID,7,VALID,2.03672,
2010-05-16, 00:38:04,VALID,1001.52,VALID,0,VALID,83.6354,VALID,0,VALID,27.7157,VALID,49,VALID,1.07734,
2010-05-16, 00:39:04,VALID,1001.51,VALID,0,VALID,83.6125,VALID,0,VALID,27.7351,VALID,15,VALID,2.22305,
2010-05-16, 00:40:04,VALID,1001.57,VALID,0,VALID,83.5896,VALID,0,VALID,27.7351,VALID,33,VALID,2.41445,
2010-05-16, 00:41:04,VALID,1001.52,VALID,0,VALID,83.4371,VALID,0,VALID,27.7762,VALID,17,VALID,1.3918,
2010-05-16, 00:42:04,VALID,1001.49,VALID,0,VALID,83.3684,VALID,0,VALID,27.7741,VALID,16,VALID,1.76563,
2010-05-16, 00:43:04,VALID,1001.49,VALID,0,VALID,83.3913,VALID,0,VALID,27.7936,VALID,18,VALID,1.25234,
2010-05-16, 00:44:04,VALID,1001.47,VALID,0,VALID,83.3303,VALID,0,VALID,27.7936,VALID,18,VALID,1.31875,
2010-05-16, 00:45:04,VALID,1001.46,VALID,0,VALID,83.3913,VALID,0,VALID,27.7525,VALID,22,VALID,1.61992,
2010-05-16, 00:46:04,VALID,1001.4,VALID,0,VALID,83.3531,VALID,0.100563,VALID,27.7525,VALID,357,VALID,2.26328,
2010-05-16, 00:47:04,VALID,1001.39,VALID,0,VALID,83.2921,VALID,0,VALID,27.7936,VALID,9,VALID,1.48711,
2010-05-16, 00:48:04,VALID,1001.38,VALID,0,VALID,83.3684,VALID,0,VALID,27.772,VALID,12,VALID,1.7082,
2010-05-16, 00:49:04,VALID,1001.32,VALID,0,VALID,83.3608,VALID,0.100563,VALID,27.7936,VALID,351,VALID,1.91836,
2010-05-16, 00:50:04,VALID,1001.34,VALID,0,VALID,83.4981,VALID,0,VALID,27.7525,VALID,35,VALID,0.717969,
2010-05-16, 00:51:04,VALID,1001.33,VALID,0,VALID,83.5973,VALID,0,VALID,27.7136,VALID,25,VALID,1.42695,
2010-05-16, 00:52:04,VALID,1001.3,VALID,0,VALID,83.8033,VALID,0.100563,VALID,27.6746,VALID,9,VALID,1.51719,
2010-05-16, 00:53:04,VALID,1001.23,VALID,0,VALID,83.8185,VALID,0,VALID,27.6356,VALID,28,VALID,1.88906,
2010-05-16, 00:54:04,VALID,1001.24,VALID,0,VALID,83.8033,VALID,0,VALID,27.6767,VALID,32,VALID,1.74844,
2010-05-16, 00:55:04,VALID,1001.26,VALID,0,VALID,83.6507,VALID,0,VALID,27.6941,VALID,355,VALID,1.82617,
2010-05-16, 00:56:04,VALID,1001.29,VALID,0,VALID,83.5973,VALID,0,VALID,27.7351,VALID,7,VALID,1.60703,
2010-05-16, 00:57:04,VALID,1001.31,VALID,0,VALID,83.6125,VALID,0,VALID,27.6962,VALID,70,VALID,0.633203,
2010-05-16, 00:58:04,VALID,1001.28,VALID,0,VALID,83.7346,VALID,0,VALID,27.6941,VALID,16,VALID,1.72031,
2010-05-16, 00:59:04,VALID,1001.27,VALID,0,VALID,83.582,VALID,0,VALID,27.6962,VALID,17,VALID,1.53516,
2010-05-16, 01:00:04,VALID,1001.28,VALID,0,VALID,83.643,VALID,0,VALID,27.6551,VALID,13,VALID,1.45742,
2010-05-16, 01:01:04,VALID,1001.23,VALID,0,VALID,83.048,VALID,0,VALID,27.7546,VALID,26,VALID,2.04453,
2010-05-16, 01:02:04,VALID,1001.25,VALID,0,VALID,82.9412,VALID,0,VALID,27.7915,VALID,7,VALID,1.22266,
2010-05-16, 01:03:04,VALID,1001.22,VALID,0,VALID,82.8268,VALID,0.100563,VALID,27.8521,VALID,356,VALID,1.28906,
2010-05-16, 01:04:04,VALID,1001.24,VALID,0,VALID,82.9412,VALID,0,VALID,27.8131,VALID,53,VALID,1.17773,
2010-05-16, 01:05:04,VALID,1001.21,VALID,0,VALID,82.8268,VALID,0.100563,VALID,27.772,VALID,40,VALID,1.74883,
2010-05-16, 01:06:04,VALID,1001.21,VALID,0,VALID,82.5903,VALID,0,VALID,27.8131,VALID,61,VALID,1.46797,
2010-05-16, 01:07:04,VALID,1001.21,VALID,0,VALID,82.4758,VALID,0,VALID,27.8131,VALID,8,VALID,1.36992,
2010-05-16, 01:08:04,VALID,1001.24,VALID,0,VALID,82.6208,VALID,0,VALID,27.8326,VALID,30,VALID,0.741406,
2010-05-16, 01:09:04,VALID,1001.22,VALID,0,VALID,82.3461,VALID,0,VALID,27.8305,VALID,22,VALID,2.39531,
2010-05-16, 01:10:04,VALID,1001.23,VALID,0,VALID,82.3232,VALID,0,VALID,27.8521,VALID,43,VALID,1.83359,
2010-05-16, 01:11:04,VALID,1001.18,VALID,0,VALID,82.2927,VALID,0.100563,VALID,27.8521,VALID,9,VALID,2.26016,
2010-05-16, 01:12:04,VALID,1001.22,VALID,0,VALID,82.3232,VALID,0,VALID,27.85,VALID,27,VALID,2.56289,
2010-05-16, 01:13:04,VALID,1001.22,VALID,0,VALID,82.4606,VALID,0.100563,VALID,27.811,VALID,21,VALID,1.30742,
2010-05-16, 01:14:04,VALID,1001.2,VALID,0,VALID,82.5216,VALID,0,VALID,27.7936,VALID,24,VALID,2.06211,
2010-05-16, 01:15:04,VALID,1001.17,VALID,0,VALID,82.5063,VALID,0,VALID,27.7546,VALID,89,VALID,1.51641,
2010-05-16, 01:16:04,VALID,1001.13,VALID,0,VALID,82.514,VALID,0,VALID,27.7762,VALID,353,VALID,1.88516,
2010-05-16, 01:17:04,VALID,1001.14,VALID,0,VALID,82.6742,VALID,0,VALID,27.7157,VALID,5,VALID,1.68281,
2010-05-16, 01:18:04,VALID,1001.11,VALID,0,VALID,82.8725,VALID,0,VALID,27.6962,VALID,12,VALID,1.73359,
2010-05-16, 01:19:04,VALID,1001.11,VALID,0,VALID,82.8573,VALID,0,VALID,27.6788,VALID,25,VALID,2.44375,
2010-05-16, 01:20:04,VALID,1001.08,VALID,0,VALID,82.7962,VALID,0,VALID,27.7178,VALID,43,VALID,2.08086,
2010-05-16, 01:21:04,VALID,1001.08,VALID,0,VALID,82.5674,VALID,0,VALID,27.7178,VALID,26,VALID,2.06328,
2010-05-16, 01:22:04,VALID,1001.09,VALID,0,VALID,82.5903,VALID,0,VALID,27.7567,VALID,16,VALID,1.25547,
2010-05-16, 01:23:04,VALID,1001.07,VALID,0,VALID,82.5597,VALID,0,VALID,27.7567,VALID,14,VALID,2.14609,
2010-05-16, 01:24:04,VALID,1001.08,VALID,0,VALID,82.5292,VALID,0,VALID,27.7567,VALID,22,VALID,1.54102,
2010-05-16, 01:25:04,VALID,1001.11,VALID,0,VALID,82.6131,VALID,0,VALID,27.7372,VALID,13,VALID,1.40508,
2010-05-16, 01:26:04,VALID,1001.06,VALID,0,VALID,82.5903,VALID,0,VALID,27.7178,VALID,18,VALID,2.05977,
2010-05-16, 01:27:04,VALID,1001.08,VALID,0,VALID,82.8115,VALID,0,VALID,27.6983,VALID,11,VALID,1.54922,
2010-05-16, 01:28:04,VALID,1001.07,VALID,0,VALID,82.7962,VALID,0,VALID,27.6983,VALID,355,VALID,1.44297,
2010-05-16, 01:29:04,VALID,1001.09,VALID,0,VALID,82.7123,VALID,0,VALID,27.6593,VALID,9,VALID,1.75898,
2010-05-16, 01:30:04,VALID,1001.12,VALID,0,VALID,82.7505,VALID,0,VALID,27.6767,VALID,71,VALID,1.12266,
2010-05-16, 01:31:04,VALID,1001.13,VALID,0,VALID,82.781,VALID,0,VALID,27.6572,VALID,356,VALID,2.59727,
2010-05-16, 01:32:04,VALID,1001.15,VALID,0,VALID,82.8344,VALID,0,VALID,27.6398,VALID,359,VALID,1.15156,
2010-05-16, 01:33:04,VALID,1001.16,VALID,0,VALID,83.0404,VALID,0,VALID,27.6398,VALID,21,VALID,0.853906,
2010-05-16, 01:34:04,VALID,1001.14,VALID,0,VALID,83.1395,VALID,0,VALID,27.6008,VALID,8,VALID,1.08633,
2010-05-16, 01:35:04,VALID,1001.13,VALID,0,VALID,83.2006,VALID,0,VALID,27.5792,VALID,8,VALID,1.45078,
2010-05-16, 01:36:04,VALID,1001.1,VALID,0,VALID,83.2082,VALID,0,VALID,27.6203,VALID,22,VALID,1.07734,
2010-05-16, 01:37:04,VALID,1001.12,VALID,0,VALID,83.1319,VALID,0,VALID,27.5987,VALID,21,VALID,1.39961,
2010-05-16, 01:38:04,VALID,1001.11,VALID,0,VALID,82.9946,VALID,0,VALID,27.6398,VALID,53,VALID,1.29531,
2010-05-16, 01:39:04,VALID,1001.1,VALID,0,VALID,82.9259,VALID,0,VALID,27.6593,VALID,27,VALID,1.76445,
2010-05-16, 01:40:04,VALID,1001.09,VALID,0,VALID,82.9259,VALID,0,VALID,27.6572,VALID,20,VALID,1.49531,
2010-05-16, 01:41:04,VALID,1001.09,VALID,0,VALID,83.048,VALID,0,VALID,27.6182,VALID,70,VALID,1.68945,
2010-05-16, 01:42:04,VALID,1001.12,VALID,0,VALID,83.1167,VALID,0,VALID,27.5792,VALID,68,VALID,0.913281,
2010-05-16, 01:43:04,VALID,1001.1,VALID,0,VALID,83.1853,VALID,0,VALID,27.6203,VALID,24,VALID,1.16562,
2010-05-16, 01:44:04,VALID,1001.13,VALID,0,VALID,83.2769,VALID,0,VALID,27.6203,VALID,13,VALID,0.987891,
2010-05-16, 01:45:04,VALID,1001.12,VALID,0,VALID,83.1777,VALID,0,VALID,27.6182,VALID,31,VALID,0.846094,
2010-05-16, 01:46:04,VALID,1001.12,VALID,0,VALID,83.109,VALID,0,VALID,27.5987,VALID,356,VALID,1.07813,
2010-05-16, 01:47:04,VALID,1001.13,VALID,0,VALID,83.2692,VALID,0,VALID,27.5772,VALID,19,VALID,0.701953,
2010-05-16, 01:48:04,VALID,1001.12,VALID,0,VALID,83.4371,VALID,0,VALID,27.5598,VALID,32,VALID,0.899219,
2010-05-16, 01:49:04,VALID,1001.12,VALID,0,VALID,83.5362,VALID,0,VALID,27.5208,VALID,69,VALID,0.423828,
2010-05-16, 01:50:04,VALID,1001.08,VALID,0,VALID,83.6354,VALID,0.100563,VALID,27.4992,VALID,88,VALID,1.50352,
2010-05-16, 01:51:04,VALID,1001.09,VALID,0,VALID,83.8719,VALID,0.100563,VALID,27.4797,VALID,24,VALID,0.775781,
2010-05-16, 01:52:04,VALID,1001.06,VALID,0,VALID,84.0321,VALID,0,VALID,27.4018,VALID,6,VALID,1.15391,
2010-05-16, 01:53:04,VALID,1001.1,VALID,0,VALID,83.9177,VALID,0,VALID,27.4408,VALID,8,VALID,2.13164,
2010-05-16, 01:54:04,VALID,1001.11,VALID,0,VALID,83.8643,VALID,0,VALID,27.4818,VALID,18,VALID,0.500781,
2010-05-16, 01:55:04,VALID,1001.09,VALID,0,VALID,83.9558,VALID,0,VALID,27.4623,VALID,58,VALID,0.664453,
2010-05-16, 01:56:04,VALID,1001.12,VALID,0,VALID,84.1389,VALID,0,VALID,27.4018,VALID,30,VALID,1.46719,
2010-05-16, 01:57:04,VALID,1001.12,VALID,0,VALID,84.3144,VALID,0,VALID,27.3844,VALID,13,VALID,1.3293,
2010-05-16, 01:58:04,VALID,1001.1,VALID,0,VALID,84.2305,VALID,0,VALID,27.3844,VALID,24,VALID,1.28398,
2010-05-16, 01:59:04,VALID,1001.08,VALID,0,VALID,84.1923,VALID,0,VALID,27.3823,VALID,356,VALID,0.790625,
2010-05-16, 02:00:04,VALID,1001.07,VALID,0,VALID,84.2305,VALID,0,VALID,27.3628,VALID,79,VALID,0.644531,
2010-05-16, 02:01:04,VALID,1001.12,VALID,0,VALID,84.2228,VALID,0,VALID,27.4039,VALID,45,VALID,0.663672,
2010-05-16, 02:02:04,VALID,1001.05,VALID,0,VALID,84.2152,VALID,0,VALID,27.3628,VALID,9,VALID,1.43008,
2010-05-16, 02:03:04,VALID,1001.08,VALID,0,VALID,84.2686,VALID,0,VALID,27.3823,VALID,36,VALID,1.47852,
2010-05-16, 02:04:04,VALID,1001.1,VALID,0,VALID,84.2991,VALID,0,VALID,27.4039,VALID,42,VALID,1.23945,
2010-05-16, 02:05:04,VALID,1001.1,VALID,0,VALID,84.4212,VALID,0,VALID,27.3844,VALID,21,VALID,1.2375,
2010-05-16, 02:06:04,VALID,1001.1,VALID,0,VALID,84.4517,VALID,0,VALID,27.3628,VALID,38,VALID,0.669141,
2010-05-16, 02:07:04,VALID,1001.1,VALID,0,VALID,84.467,VALID,0.100563,VALID,27.3628,VALID,107,VALID,0.809375,
2010-05-16, 02:08:04,VALID,1001.12,VALID,0,VALID,84.5661,VALID,0,VALID,27.3649,VALID,46,VALID,0.65625,
2010-05-16, 02:09:04,VALID,1001.13,VALID,0,VALID,84.6501,VALID,0,VALID,27.3238,VALID,22,VALID,0.631641,
2010-05-16, 02:10:04,VALID,1001.1,VALID,0,VALID,84.6501,VALID,0,VALID,27.3259,VALID,78,VALID,1.55938,
2010-05-16, 02:11:04,VALID,1001.15,VALID,0,VALID,84.5738,VALID,0,VALID,27.3433,VALID,24,VALID,1.31172,
2010-05-16, 02:12:04,VALID,1001.12,VALID,0,VALID,84.6272,VALID,0,VALID,27.3649,VALID,35,VALID,0.764844,
2010-05-16, 02:13:04,VALID,1001.12,VALID,0,VALID,84.5967,VALID,0,VALID,27.3649,VALID,60,VALID,0.439844,
2010-05-16, 02:14:04,VALID,1001.09,VALID,0,VALID,84.6806,VALID,0,VALID,27.3238,VALID,356,VALID,0.872266,
2010-05-16, 02:15:04,VALID,1001.08,VALID,0,VALID,84.7492,VALID,0,VALID,27.3064,VALID,13,VALID,0.8875,
2010-05-16, 02:16:04,VALID,1001.07,VALID,0,VALID,84.7721,VALID,0,VALID,27.328,VALID,77,VALID,0.860547,
2010-05-16, 02:17:04,VALID,1001.09,VALID,0,VALID,84.8255,VALID,0,VALID,27.328,VALID,63,VALID,0.414453,
2010-05-16, 02:18:04,VALID,1001.09,VALID,0,VALID,84.9018,VALID,0,VALID,27.3085,VALID,42,VALID,0.619922,
2010-05-16, 02:19:04,VALID,1001.1,VALID,0,VALID,84.9628,VALID,0,VALID,27.2675,VALID,52,VALID,0.519531,
2010-05-16, 02:20:04,VALID,1001.08,VALID,0,VALID,85.0773,VALID,0,VALID,27.2675,VALID,76,VALID,0.680859,
2010-05-16, 02:21:04,VALID,1001.09,VALID,0,VALID,85.1612,VALID,0,VALID,27.2285,VALID,73,VALID,0.837891,
2010-05-16, 02:22:04,VALID,1001.12,VALID,0,VALID,85.2146,VALID,0,VALID,27.25,VALID,35,VALID,0.226172,
2010-05-16, 02:23:04,VALID,1001.1,VALID,0,VALID,85.1078,VALID,0,VALID,27.2695,VALID,28,VALID,0.940625,
2010-05-16, 02:24:04,VALID,1001.12,VALID,0,VALID,85.0239,VALID,0,VALID,27.3085,VALID,50,VALID,0,
2010-05-16, 02:25:04,VALID,1001.13,VALID,0,VALID,85.0468,VALID,0,VALID,27.289,VALID,11,VALID,0.834375,
2010-05-16, 02:26:04,VALID,1001.14,VALID,0,VALID,85.1154,VALID,0,VALID,27.2695,VALID,18,VALID,0.860156,
2010-05-16, 02:27:04,VALID,1001.13,VALID,0,VALID,85.1459,VALID,0,VALID,27.2695,VALID,8,VALID,0.693359,
2010-05-16, 02:28:04,VALID,1001.14,VALID,0,VALID,85.2146,VALID,0,VALID,27.2695,VALID,6,VALID,0.899219,
2010-05-16, 02:29:04,VALID,1001.16,VALID,0,VALID,85.2222,VALID,0,VALID,27.25,VALID,19,VALID,0.479688,
2010-05-16, 02:30:04,VALID,1001.15,VALID,0,VALID,85.3443,VALID,0,VALID,27.2285,VALID,48,VALID,0.602344,
2010-05-16, 02:31:04,VALID,1001.11,VALID,0,VALID,85.4206,VALID,0.100563,VALID,27.1875,VALID,69,VALID,0.58125,
2010-05-16, 02:32:04,VALID,1001.11,VALID,0,VALID,85.5503,VALID,0,VALID,27.168,VALID,10,VALID,0.877734,
2010-05-16, 02:33:04,VALID,1001.12,VALID,0,VALID,85.5426,VALID,0,VALID,27.168,VALID,75,VALID,0.838672,
2010-05-16, 02:34:04,VALID,1001.11,VALID,0,VALID,85.6266,VALID,0,VALID,27.1485,VALID,54,VALID,0.687109,
2010-05-16, 02:35:04,VALID,1001.11,VALID,0,VALID,85.6952,VALID,0,VALID,27.17,VALID,82,VALID,0.657812,
2010-05-16, 02:36:04,VALID,1001.07,VALID,0,VALID,85.7562,VALID,0.100563,VALID,27.1485,VALID,19,VALID,0.853516,
2010-05-16, 02:37:04,VALID,1001.07,VALID,0,VALID,85.7868,VALID,0,VALID,27.1506,VALID,53,VALID,0.505859,
2010-05-16, 02:38:04,VALID,1001.06,VALID,0,VALID,85.8936,VALID,0,VALID,27.1116,VALID,54,VALID,0.883984,
2010-05-16, 02:39:04,VALID,1001.05,VALID,0,VALID,85.8936,VALID,0,VALID,27.1116,VALID,18,VALID,1.15273,
2010-05-16, 02:40:04,VALID,1001.05,VALID,0,VALID,85.802,VALID,0,VALID,27.17,VALID,22,VALID,1.64219,
2010-05-16, 02:41:04,VALID,1001.08,VALID,0,VALID,85.596,VALID,0,VALID,27.1875,VALID,7,VALID,0.875,
2010-05-16, 02:42:04,VALID,1001.08,VALID,0,VALID,85.4816,VALID,0,VALID,27.248,VALID,19,VALID,0.591016,
2010-05-16, 02:43:04,VALID,1001.04,VALID,0,VALID,85.4358,VALID,0,VALID,27.2069,VALID,82,VALID,0.758984,
2010-05-16, 02:44:04,VALID,1001.06,VALID,0,VALID,85.4053,VALID,0,VALID,27.2285,VALID,40,VALID,0.433594,
2010-05-16, 02:45:04,VALID,1001.05,VALID,0,VALID,85.4435,VALID,0,VALID,27.2285,VALID,67,VALID,0.711328,
2010-05-16, 02:46:04,VALID,1001.04,VALID,0,VALID,85.5274,VALID,0,VALID,27.1875,VALID,32,VALID,1.08633,
2010-05-16, 02:47:04,VALID,1001.03,VALID,0,VALID,85.3443,VALID,0,VALID,27.2069,VALID,41,VALID,0.501562,
2010-05-16, 02:48:05,VALID,1001.02,VALID,0,VALID,85.3214,VALID,0,VALID,27.248,VALID,65,VALID,0.508594,
2010-05-16, 02:49:05,VALID,1001.04,VALID,0,VALID,85.3824,VALID,0,VALID,27.2069,VALID,21,VALID,1.79492,
2010-05-16, 02:50:05,VALID,1001.02,VALID,0,VALID,85.4816,VALID,0,VALID,27.2285,VALID,13,VALID,0.987109,
2010-05-16, 02:51:05,VALID,1001.02,VALID,0,VALID,85.3443,VALID,0.100563,VALID,27.2264,VALID,73,VALID,1.45977,
2010-05-16, 02:52:05,VALID,1001,VALID,0,VALID,85.2527,VALID,0,VALID,27.2459,VALID,41,VALID,0.646875,
2010-05-16, 02:53:05,VALID,1000.94,VALID,0,VALID,85.2299,VALID,0,VALID,27.248,VALID,49,VALID,0.235156,
2010-05-16, 02:54:05,VALID,1000.93,VALID,0,VALID,85.1993,VALID,0,VALID,27.2459,VALID,33,VALID,1.21719,
2010-05-16, 02:55:05,VALID,1000.95,VALID,0,VALID,85.1078,VALID,0,VALID,27.2654,VALID,44,VALID,0.859375,
2010-05-16, 02:56:05,VALID,1000.91,VALID,0,VALID,85.0773,VALID,0,VALID,27.2654,VALID,29,VALID,1.20781,
2010-05-16, 02:57:05,VALID,1000.92,VALID,0,VALID,85.0162,VALID,0,VALID,27.2869,VALID,19,VALID,1.49766,
2010-05-16, 02:58:05,VALID,1000.9,VALID,0,VALID,84.9705,VALID,0.100563,VALID,27.2849,VALID,30,VALID,1.88594,
2010-05-16, 02:59:05,VALID,1000.87,VALID,0,VALID,84.7416,VALID,0,VALID,27.3238,VALID,28,VALID,1.47422,
2010-05-16, 03:00:05,VALID,1000.89,VALID,0,VALID,84.589,VALID,0,VALID,27.3649,VALID,18,VALID,1.42383,
2010-05-16, 03:01:05,VALID,1000.83,VALID,0,VALID,84.4288,VALID,0,VALID,27.3649,VALID,15,VALID,1.7918,
2010-05-16, 03:02:05,VALID,1000.91,VALID,0,VALID,84.2,VALID,0,VALID,27.4233,VALID,7,VALID,1.56641,
2010-05-16, 03:03:05,VALID,1000.91,VALID,0,VALID,84.0703,VALID,0,VALID,27.4428,VALID,66,VALID,0.981641,
2010-05-16, 03:04:05,VALID,1000.9,VALID,0,VALID,83.9711,VALID,0,VALID,27.4644,VALID,19,VALID,1.52344,
2010-05-16, 03:05:05,VALID,1000.94,VALID,0,VALID,83.8109,VALID,0,VALID,27.5034,VALID,25,VALID,1.31602,
2010-05-16, 03:06:05,VALID,1000.92,VALID,0,VALID,83.7117,VALID,0,VALID,27.4818,VALID,25,VALID,2.20234,
2010-05-16, 03:07:05,VALID,1000.91,VALID,0,VALID,83.582,VALID,0,VALID,27.5013,VALID,351,VALID,2.31523,
2010-05-16, 03:08:05,VALID,1000.92,VALID,0,VALID,83.46,VALID,0,VALID,27.5208,VALID,15,VALID,1.78437,
2010-05-16, 03:09:05,VALID,1000.93,VALID,0,VALID,83.4752,VALID,0,VALID,27.5403,VALID,7,VALID,1.33086,
2010-05-16, 03:10:05,VALID,1000.95,VALID,0,VALID,83.4981,VALID,0,VALID,27.5208,VALID,39,VALID,1.36055,
2010-05-16, 03:11:05,VALID,1000.9,VALID,0,VALID,83.582,VALID,0,VALID,27.5013,VALID,19,VALID,1.82852,
2010-05-16, 03:12:05,VALID,1000.9,VALID,0,VALID,83.4676,VALID,0,VALID,27.5208,VALID,24,VALID,1.62266,
2010-05-16, 03:13:05,VALID,1000.87,VALID,0,VALID,83.3226,VALID,0,VALID,27.5598,VALID,11,VALID,3.58086,
2010-05-16, 03:14:05,VALID,1000.86,VALID,0,VALID,83.1548,VALID,0,VALID,27.6182,VALID,9,VALID,3.04844,
2010-05-16, 03:15:05,VALID,1000.83,VALID,0,VALID,83.0785,VALID,0,VALID,27.6182,VALID,13,VALID,2.06172,
2010-05-16, 03:16:05,VALID,1000.82,VALID,0,VALID,83.0785,VALID,0,VALID,27.6182,VALID,9,VALID,1.36719,
2010-05-16, 03:17:05,VALID,1000.83,VALID,0,VALID,83.1319,VALID,0,VALID,27.5987,VALID,1,VALID,2.25977,
2010-05-16, 03:18:05,VALID,1000.87,VALID,0,VALID,83.2616,VALID,0,VALID,27.5987,VALID,20,VALID,1.29883,
2010-05-16, 03:19:05,VALID,1000.84,VALID,0,VALID,83.3913,VALID,0,VALID,27.5813,VALID,13,VALID,0.972266,
2010-05-16, 03:20:05,VALID,1000.85,VALID,0,VALID,83.5896,VALID,0,VALID,27.5208,VALID,33,VALID,1.7207,
2010-05-16, 03:21:05,VALID,1000.84,VALID,0,VALID,83.6659,VALID,0,VALID,27.5229,VALID,18,VALID,1.15469,
2010-05-16, 03:22:05,VALID,1000.83,VALID,0,VALID,83.7575,VALID,0,VALID,27.5013,VALID,87,VALID,1.60898,
2010-05-16, 03:23:05,VALID,1000.82,VALID,0,VALID,83.9177,VALID,0,VALID,27.4839,VALID,15,VALID,1.71289,
2010-05-16, 03:24:05,VALID,1000.82,VALID,0,VALID,84.0169,VALID,0,VALID,27.4839,VALID,7,VALID,1.23906,
2010-05-16, 03:25:05,VALID,1000.79,VALID,0,VALID,83.8719,VALID,0,VALID,27.4839,VALID,10,VALID,1.84687,
2010-05-16, 03:26:05,VALID,1000.8,VALID,0,VALID,83.5744,VALID,0,VALID,27.5618,VALID,24,VALID,2.7918,
2010-05-16, 03:27:05,VALID,1000.78,VALID,0,VALID,83.2235,VALID,0,VALID,27.5987,VALID,48,VALID,1.68047,
2010-05-16, 03:28:05,VALID,1000.76,VALID,0,VALID,83.1014,VALID,0,VALID,27.6398,VALID,328,VALID,1.13867,
2010-05-16, 03:29:05,VALID,1000.77,VALID,0,VALID,83.1777,VALID,0,VALID,27.5987,VALID,20,VALID,1.26367,
2010-05-16, 03:30:05,VALID,1000.74,VALID,0,VALID,83.2235,VALID,0,VALID,27.5987,VALID,20,VALID,1.59102,
2010-05-16, 03:31:05,VALID,1000.72,VALID,0,VALID,83.2463,VALID,0,VALID,27.5792,VALID,355,VALID,1.62422,
2010-05-16, 03:32:05,VALID,1000.75,VALID,0,VALID,82.9488,VALID,0,VALID,27.6182,VALID,37,VALID,2.25781,
2010-05-16, 03:33:05,VALID,1000.75,VALID,0,VALID,82.9336,VALID,0,VALID,27.6788,VALID,358,VALID,1.43516,
2010-05-16, 03:34:05,VALID,1000.76,VALID,0,VALID,82.9717,VALID,0,VALID,27.6182,VALID,31,VALID,1.0875,
2010-05-16, 03:35:05,VALID,1000.72,VALID,0,VALID,83.1548,VALID,0,VALID,27.5987,VALID,72,VALID,0.957422,
2010-05-16, 03:36:05,VALID,1000.71,VALID,0,VALID,83.3226,VALID,0,VALID,27.5792,VALID,25,VALID,0.766797,
2010-05-16, 03:37:05,VALID,1000.73,VALID,0,VALID,83.376,VALID,0,VALID,27.5618,VALID,66,VALID,1.22617,
2010-05-16, 03:38:05,VALID,1000.75,VALID,0,VALID,83.3913,VALID,0,VALID,27.5813,VALID,40,VALID,1.61055,
2010-05-16, 03:39:05,VALID,1000.74,VALID,0,VALID,83.3303,VALID,0,VALID,27.5598,VALID,23,VALID,2.01094,
2010-05-16, 03:40:05,VALID,1000.72,VALID,0,VALID,83.3379,VALID,0,VALID,27.5792,VALID,13,VALID,0.992188,
2010-05-16, 03:41:05,VALID,1000.71,VALID,0,VALID,83.2769,VALID,0,VALID,27.6008,VALID,15,VALID,1.77695,
2010-05-16, 03:42:05,VALID,1000.74,VALID,0,VALID,83.1701,VALID,0,VALID,27.5792,VALID,12,VALID,1.1168,
2010-05-16, 03:43:05,VALID,1000.8,VALID,0,VALID,83.2616,VALID,0,VALID,27.5813,VALID,73,VALID,0.350781,
2010-05-16, 03:44:05,VALID,1000.8,VALID,0,VALID,83.4294,VALID,0,VALID,27.5208,VALID,49,VALID,0.821094,
2010-05-16, 03:45:05,VALID,1000.82,VALID,0,VALID,83.6583,VALID,0,VALID,27.4818,VALID,53,VALID,1.05391,
2010-05-16, 03:46:05,VALID,1000.84,VALID,0,VALID,83.8261,VALID,0,VALID,27.4623,VALID,34,VALID,1.06758,
2010-05-16, 03:47:05,VALID,1000.86,VALID,0,VALID,84.0703,VALID,0,VALID,27.4039,VALID,39,VALID,0.850391,